Location: Oberkirch
(48.5323°N, 8.0787°E)
Time: 15:10:29
(UTC+00:00)

SR - Pass Details

Date: 19 February 2026
Orbit: 573 x 848 km, 66.7° (Epoch: 7 March)

Event Time Altitude Azimuth Distance (km) Brightness Sun altitude
Exits shadow 03:44:08 50° 84° (E) 764 ? -27.7°
Drops below altitude 10° 03:47:50 10° 42° (NE) 1,992 ? -27.1°
Sets 03:50:13 0° 38° (NE) 2,942 ? -26.7°
